This is the latest recevied weather packets stored in our database for station/object KD9CCP. If no packets are shown the sender has not sent any weather packets the latest 10 day(s).
| Time | Temp. | Humidity | Pressure | Rain* | Wind** | Luminosity | Snow |
|---|---|---|---|---|---|---|---|
| 1777755321 | 12.22° C | 37% | 1014.1 hPa | 0 mm | - | 75 W/m² | - |
| 1777755018 | 12.22° C | 37% | 1014.3 hPa | 0 mm | - | 32 W/m² | - |
| 1777754715 | 12.22° C | 41% | 1014.6 hPa | 0 mm | - | 30 W/m² | - |
| 1777754413 | 12.22° C | 37% | 1014.3 hPa | 0 mm | - | 45 W/m² | - |
| 1777754109 | 12.22° C | 39% | 1014.4 hPa | 0 mm | - | 69 W/m² | - |
| 1777753806 | 11.67° C | 39% | 1014.5 hPa | 0 mm | - | 46 W/m² | - |
| 1777753502 | 12.22° C | 38% | 1014.7 hPa | 0 mm | - | 83 W/m² | - |
| 1777753201 | 11.67° C | 42% | 1014.7 hPa | 0 mm | - | 41 W/m² | - |
| 1777752896 | 12.22° C | 42% | 1015 hPa | 0 mm | - | 53 W/m² | - |
| 1777752593 | 11.67° C | 44% | 1014.9 hPa | 0 mm | - | 58 W/m² | - |
| 1777752289 | 11.67° C | 40% | 1014.8 hPa | 0 mm | - | 74 W/m² | - |
| 1777751987 | 11.67° C | 40% | 1015 hPa | 0 mm | - | 91 W/m² | - |
| 1777751684 | 11.67° C | 40% | 1015.3 hPa | 0 mm | - | 141 W/m² | - |
| 1777751380 | 11.67° C | 42% | 1015.3 hPa | 0 mm | - | 367 W/m² | - |
| 1777751077 | 12.22° C | 42% | 1015.3 hPa | 0 mm | - | 49 W/m² | - |
| 1777750773 | 12.22° C | 37% | 1015.5 hPa | 0 mm | - | 48 W/m² | - |
| 1777750470 | 11.67° C | 38% | 1015.5 hPa | 0 mm | - | 51 W/m² | - |
| 1777750165 | 11.67° C | 42% | 1015.9 hPa | 0 mm | - | 61 W/m² | - |
| 1777749863 | 12.22° C | 42% | 1015.8 hPa | 0 mm | - | 80 W/m² | - |
| 1777749560 | 11.67° C | 40% | 1015.9 hPa | 0 mm | - | 58 W/m² | - |
| 1777749258 | 11.67° C | 39% | 1015.8 hPa | 0 mm | - | 85 W/m² | - |
| 1777748955 | 11.67° C | 43% | 1015.9 hPa | 0 mm | - | 82 W/m² | - |
| 1777748652 | 11.11° C | 44% | 1016.1 hPa | 0 mm | - | 75 W/m² | - |
| 1777748348 | 11.11° C | 43% | 1016.4 hPa | 0 mm | - | 65 W/m² | - |
| 1777748044 | 11.11° C | 42% | 1016.1 hPa | 0 mm | - | 81 W/m² | - |
* Rain latest hour (hover to see other rain measurements)
** Current wind speed in m/s (hover to see current wind gust speed)